| time (UTC) | temp C | wind direction | speed KPH | gust KPH | rain 1hr cm | rain 24hr cm | rain mn cm | humidity % | barometer mb |
| 20260510221054 | 15 | 84 | 0.0 | 4.8 | 0.00 | 0.10 | 0.00 | 88 | 1010.9 |
| 20260510220555 | 15 | 82 | 4.8 | 9.7 | 0.00 | 0.10 | 0.00 | 87 | 1010.9 |
| 20260510220055 | 16 | 81 | 4.8 | 8.0 | 0.00 | 0.10 | 0.10 | 88 | 1010.9 |
| 20260510215555 | 16 | 77 | 4.8 | 8.0 | 0.00 | 0.10 | 0.10 | 87 | 1011.0 |
| 20260510215054 | 16 | 68 | 3.2 | 4.8 | 0.00 | 0.10 | 0.10 | 87 | 1011.1 |
| 20260510214554 | 16 | 56 | 3.2 | 4.8 | 0.00 | 0.10 | 0.10 | 87 | 1011.0 |
| 20260510213055 | 16 | 72 | 8.0 | 11.3 | 0.00 | 0.10 | 0.10 | 87 | 1011.0 |
| 20260510212555 | 16 | 61 | 3.2 | 9.7 | 0.00 | 0.10 | 0.10 | 87 | 1011.0 |
| 20260510212055 | 16 | 76 | 4.8 | 9.7 | 0.00 | 0.10 | 0.10 | 87 | 1011.0 |
| 20260510211554 | 16 | 73 | 8.0 | 11.3 | 0.00 | 0.10 | 0.10 | 87 | 1011.0 |
| 20260510210554 | 16 | 78 | 6.4 | 11.3 | 0.00 | 0.10 | 0.10 | 87 | 1011.1 |
| 20260510210054 | 16 | 57 | 3.2 | 4.8 | 0.00 | 0.10 | 0.10 | 87 | 1011.1 |
| 20260510205554 | 16 | 84 | 1.6 | 4.8 | 0.00 | 0.10 | 0.10 | 87 | 1011.1 |
| 20260510205102 | 16 | 69 | 3.2 | 4.8 | 0.00 | 0.10 | 0.10 | 87 | 1011.2 |
| 20260510204611 | 16 | 65 | 1.6 | 4.8 | 0.00 | 0.10 | 0.10 | 87 | 1011.2 |
| 20260510203558 | 16 | 76 | 6.4 | 11.3 | 0.00 | 0.10 | 0.10 | 87 | 1011.2 |
| 20260510203058 | 16 | 64 | 6.4 | 11.3 | 0.00 | 0.10 | 0.10 | 87 | 1011.2 |
| 20260510202054 | 16 | 56 | 3.2 | 11.3 | 0.00 | 0.10 | 0.10 | 86 | 1011.2 |
| 20260510201602 | 16 | 73 | 3.2 | 9.7 | 0.00 | 0.10 | 0.10 | 86 | 1011.3 |
| 20260510201056 | 16 | 72 | 4.8 | 12.9 | 0.00 | 0.10 | 0.10 | 85 | 1011.3 |
| 20260510200056 | 16 | 70 | 1.6 | 9.7 | 0.00 | 0.10 | 0.10 | 85 | 1011.3 |
| 20260510195554 | 16 | 79 | 1.6 | 9.7 | 0.00 | 0.10 | 0.10 | 85 | 1011.3 |
| 20260510195055 | 16 | 78 | 3.2 | 9.7 | 0.00 | 0.10 | 0.10 | 84 | 1011.2 |
| 20260510194555 | 17 | 69 | 3.2 | 9.7 | 0.00 | 0.10 | 0.10 | 84 | 1011.3 |
| 20260510194055 | 17 | 78 | 6.4 | 11.3 | 0.00 | 0.10 | 0.10 | 83 | 1011.3 |
| 20260510193555 | 17 | 79 | 3.2 | 12.9 | 0.00 | 0.10 | 0.10 | 83 | 1011.3 |
| 20260510193054 | 17 | 74 | 6.4 | 14.5 | 0.00 | 0.10 | 0.10 | 82 | 1011.2 |
| 20260510192554 | 17 | 65 | 8.0 | 14.5 | 0.00 | 0.10 | 0.10 | 82 | 1011.2 |
| 20260510192057 | 17 | 72 | 11.3 | 19.3 | 0.00 | 0.10 | 0.10 | 81 | 1011.2 |
| 20260510191555 | 17 | 68 | 11.3 | 16.1 | 0.00 | 0.10 | 0.10 | 81 | 1011.2 |
| 20260510191054 | 17 | 58 | 9.7 | 14.5 | 0.00 | 0.10 | 0.10 | 80 | 1011.1 |
| 20260510190555 | 17 | 74 | 9.7 | 12.9 | 0.00 | 0.10 | 0.10 | 79 | 1011.0 |
| 20260510190055 | 17 | 69 | 9.7 | 19.3 | 0.00 | 0.10 | 0.10 | 78 | 1010.9 |
| 20260510185555 | 17 | 62 | 8.0 | 12.9 | 0.00 | 0.10 | 0.10 | 78 | 1010.9 |
| 20260510185057 | 17 | 68 | 3.2 | 4.8 | 0.00 | 0.10 | 0.10 | 78 | 1011.0 |
| 20260510184555 | 17 | 93 | 3.2 | 9.7 | 0.00 | 0.10 | 0.10 | 78 | 1010.9 |
| 20260510184054 | 17 | 85 | 8.0 | 11.3 | 0.00 | 0.10 | 0.10 | 77 | 1010.9 |
| 20260510183554 | 17 | 70 | 4.8 | 11.3 | 0.00 | 0.10 | 0.10 | 77 | 1010.8 |
| 20260510183054 | 17 | 56 | 8.0 | 11.3 | 0.00 | 0.10 | 0.10 | 77 | 1010.8 |
| 20260510182554 | 17 | 79 | 8.0 | 11.3 | 0.00 | 0.10 | 0.10 | 77 | 1010.8 |
| 20260510181558 | 17 | 72 | 4.8 | 11.3 | 0.00 | 0.10 | 0.10 | 76 | 1010.8 |
| 20260510181054 | 17 | 60 | 4.8 | 9.7 | 0.00 | 0.10 | 0.10 | 76 | 1010.8 |
| 20260510180556 | 17 | 72 | 4.8 | 11.3 | 0.00 | 0.10 | 0.10 | 76 | 1010.8 |
| 20260510180053 | 17 | 68 | 4.8 | 11.3 | 0.00 | 0.10 | 0.10 | 75 | 1010.8 |
| 20260510175055 | 17 | 77 | 3.2 | 8.0 | 0.00 | 0.10 | 0.10 | 74 | 1010.8 |
| 20260510174554 | 18 | 74 | 6.4 | 9.7 | 0.00 | 0.10 | 0.10 | 74 | 1010.8 |
| 20260510174055 | 18 | 60 | 4.8 | 12.9 | 0.00 | 0.10 | 0.10 | 74 | 1010.8 |
| 20260510173554 | 18 | 66 | 4.8 | 9.7 | 0.00 | 0.10 | 0.10 | 74 | 1010.8 |
| 20260510172553 | 18 | 50 | 1.6 | 4.8 | 0.00 | 0.10 | 0.10 | 74 | 1010.8 |
| 20260510172054 | 18 | 66 | 3.2 | 8.0 | 0.00 | 0.10 | 0.10 | 74 | 1010.8 |
| 20260510171554 | 18 | 54 | 4.8 | 9.7 | 0.00 | 0.10 | 0.10 | 74 | 1010.8 |
| 20260510171055 | 18 | 57 | 8.0 | 14.5 | 0.03 | 0.10 | 0.10 | 74 | 1010.8 |
| 20260510170553 | 18 | 67 | 4.8 | 16.1 | 0.03 | 0.10 | 0.10 | 75 | 1010.9 |
| 20260510170059 | 18 | 57 | 4.8 | 16.1 | 0.03 | 0.10 | 0.10 | 75 | 1011.0 |
| 20260510165553 | 18 | 65 | 8.0 | 12.9 | 0.03 | 0.10 | 0.10 | 75 | 1011.0 |
| 20260510165053 | 18 | 72 | 9.7 | 12.9 | 0.03 | 0.10 | 0.10 | 75 | 1011.0 |
| 20260510164054 | 18 | 73 | 6.4 | 14.5 | 0.03 | 0.10 | 0.10 | 76 | 1010.9 |
| 20260510163055 | 18 | 76 | 6.4 | 12.9 | 0.03 | 0.10 | 0.10 | 76 | 1011.0 |
| 20260510162553 | 18 | 50 | 8.0 | 12.9 | 0.03 | 0.10 | 0.10 | 77 | 1011.0 |
| 20260510162054 | 18 | 54 | 6.4 | 11.3 | 0.03 | 0.10 | 0.10 | 77 | 1011.2 |
| 20260510161557 | 18 | 36 | 4.8 | 11.3 | 0.03 | 0.10 | 0.10 | 77 | 1011.2 |
| 20260510161109 | 18 | 49 | 8.0 | 11.3 | 0.00 | 0.08 | 0.08 | 78 | 1011.1 |
| 20260510160556 | 18 | 53 | 4.8 | 8.0 | 0.00 | 0.08 | 0.08 | 79 | 1011.1 |
| 20260510160054 | 18 | 48 | 4.8 | 8.0 | 0.00 | 0.08 | 0.08 | 80 | 1011.2 |
| 20260510155554 | 18 | 69 | 3.2 | 11.3 | 0.00 | 0.08 | 0.08 | 79 | 1011.2 |
| 20260510155054 | 18 | 47 | 4.8 | 11.3 | 0.00 | 0.08 | 0.08 | 79 | 1011.3 |
| 20260510154554 | 18 | 31 | 4.8 | 4.8 | 0.00 | 0.08 | 0.08 | 79 | 1011.4 |
| 20260510154053 | 18 | 27 | 4.8 | 4.8 | 0.00 | 0.08 | 0.08 | 79 | 1011.4 |
| 20260510153554 | 18 | 55 | 4.8 | 8.0 | 0.00 | 0.08 | 0.08 | 79 | 1011.4 |
| 20260510152555 | 18 | 70 | 4.8 | 4.8 | 0.00 | 0.08 | 0.08 | 79 | 1011.4 |
| 20260510152053 | 18 | 51 | 4.8 | 4.8 | 0.00 | 0.08 | 0.08 | 79 | 1011.4 |
| 20260510151554 | 18 | 52 | 6.4 | 11.3 | 0.00 | 0.08 | 0.08 | 78 | 1011.5 |
| 20260510151054 | 18 | 38 | 4.8 | 4.8 | 0.00 | 0.08 | 0.08 | 78 | 1011.5 |
| 20260510150556 | 18 | 51 | 3.2 | 4.8 | 0.00 | 0.08 | 0.08 | 78 | 1011.5 |
| 20260510150053 | 18 | 79 | 3.2 | 8.0 | 0.00 | 0.08 | 0.08 | 78 | 1011.6 |
| 20260510145557 | 18 | 106 | 3.2 | 8.0 | 0.00 | 0.08 | 0.08 | 77 | 1011.6 |
| 20260510145054 | 18 | 110 | 8.0 | 11.3 | 0.00 | 0.08 | 0.08 | 76 | 1011.6 |
| 20260510144553 | 18 | 111 | 4.8 | 9.7 | 0.00 | 0.08 | 0.08 | 77 | 1011.7 |
| 20260510144054 | 18 | 98 | 9.7 | 14.5 | 0.00 | 0.08 | 0.08 | 77 | 1011.6 |
| 20260510143554 | 18 | 115 | 6.4 | 11.3 | 0.00 | 0.08 | 0.08 | 76 | 1011.6 |
| 20260510143053 | 18 | 107 | 3.2 | 11.3 | 0.00 | 0.08 | 0.08 | 77 | 1011.6 |
| 20260510142553 | 18 | 83 | 3.2 | 9.7 | 0.00 | 0.08 | 0.08 | 77 | 1011.7 |
| 20260510142101 | 18 | 69 | 3.2 | 8.0 | 0.00 | 0.08 | 0.08 | 78 | 1011.7 |
| 20260510141053 | 18 | 74 | 3.2 | 4.8 | 0.00 | 0.08 | 0.08 | 79 | 1011.7 |
| 20260510140554 | 18 | 78 | 8.0 | 12.9 | 0.00 | 0.08 | 0.08 | 77 | 1011.7 |
| 20260510140053 | 18 | 68 | 3.2 | 8.0 | 0.00 | 0.08 | 0.08 | 77 | 1011.7 |
| 20260510135053 | 18 | 64 | 6.4 | 9.7 | 0.00 | 0.08 | 0.08 | 77 | 1011.8 |
| 20260510134054 | 18 | 64 | 4.8 | 8.0 | 0.00 | 0.08 | 0.08 | 77 | 1011.9 |
| 20260510133554 | 18 | 53 | 4.8 | 8.0 | 0.00 | 0.08 | 0.08 | 76 | 1011.9 |
| 20260510133053 | 18 | 78 | 4.8 | 11.3 | 0.00 | 0.08 | 0.08 | 75 | 1012.1 |
| 20260510132612 | 18 | 42 | 4.8 | 8.0 | 0.00 | 0.08 | 0.08 | 76 | 1012.1 |
| 20260510132053 | 18 | 36 | 3.2 | 4.8 | 0.00 | 0.08 | 0.08 | 76 | 1012.1 |
| 20260510131553 | 18 | 79 | 4.8 | 12.9 | 0.00 | 0.08 | 0.08 | 76 | 1012.1 |
| 20260510130553 | 18 | 59 | 4.8 | 11.3 | 0.00 | 0.08 | 0.08 | 79 | 1011.9 |
| 20260510130053 | 18 | 70 | 4.8 | 11.3 | 0.00 | 0.08 | 0.08 | 79 | 1012.0 |
| 20260510125553 | 18 | 73 | 8.0 | 12.9 | 0.00 | 0.08 | 0.08 | 78 | 1012.0 |
| 20260510125056 | 18 | 65 | 8.0 | 12.9 | 0.00 | 0.08 | 0.08 | 79 | 1012.1 |
| 20260510124553 | 18 | 72 | 8.0 | 11.3 | 0.00 | 0.08 | 0.08 | 77 | 1012.1 |
| 20260510124053 | 18 | 42 | 6.4 | 9.7 | 0.00 | 0.08 | 0.08 | 76 | 1012.1 |
| 20260510123553 | 18 | 57 | 8.0 | 12.9 | 0.00 | 0.08 | 0.08 | 74 | 1012.1 |
| 20260510123053 | 18 | 74 | 1.6 | 3.2 | 0.00 | 0.08 | 0.08 | 74 | 1012.2 |
| 20260510122553 | 18 | 70 | 4.8 | 8.0 | 0.00 | 0.08 | 0.08 | 73 | 1012.2 |
| 20260510122053 | 18 | 51 | 8.0 | 12.9 | 0.00 | 0.08 | 0.08 | 73 | 1012.2 |
| 20260510121053 | 18 | 56 | 4.8 | 8.0 | 0.00 | 0.08 | 0.08 | 73 | 1012.2 |
| 20260510120552 | 18 | 77 | 8.0 | 14.5 | 0.00 | 0.08 | 0.08 | 72 | 1012.2 |
| 20260510120053 | 18 | 74 | 9.7 | 14.5 | 0.00 | 0.08 | 0.08 | 72 | 1012.2 |
| 20260510115553 | 18 | 74 | 11.3 | 16.1 | 0.00 | 0.08 | 0.08 | 72 | 1012.2 |
| 20260510115053 | 18 | 78 | 9.7 | 19.3 | 0.00 | 0.08 | 0.08 | 72 | 1012.1 |
| 20260510114554 | 18 | 76 | 11.3 | 14.5 | 0.00 | 0.08 | 0.08 | 73 | 1012.2 |
| 20260510114053 | 18 | 71 | 8.0 | 16.1 | 0.00 | 0.08 | 0.08 | 73 | 1012.3 |
| 20260510113553 | 18 | 76 | 12.9 | 20.9 | 0.00 | 0.08 | 0.08 | 72 | 1012.3 |
| 20260510113053 | 18 | 63 | 12.9 | 24.1 | 0.00 | 0.08 | 0.08 | 73 | 1012.4 |
| 20260510112552 | 18 | 64 | 4.8 | 14.5 | 0.00 | 0.08 | 0.08 | 75 | 1012.4 |
| 20260510112054 | 18 | 63 | 14.5 | 19.3 | 0.00 | 0.08 | 0.08 | 73 | 1012.4 |
| 20260510111554 | 18 | 54 | 9.7 | 14.5 | 0.00 | 0.08 | 0.08 | 74 | 1012.5 |
| 20260510111053 | 18 | 55 | 16.1 | 19.3 | 0.00 | 0.08 | 0.08 | 73 | 1012.5 |
| 20260510110554 | 18 | 85 | 12.9 | 16.1 | 0.00 | 0.08 | 0.08 | 74 | 1012.6 |
| 20260510105052 | 18 | 54 | 11.3 | 16.1 | 0.00 | 0.08 | 0.08 | 77 | 1012.7 |
| 20260510104554 | 18 | 68 | 14.5 | 19.3 | 0.00 | 0.08 | 0.08 | 77 | 1012.7 |
| 20260510104053 | 18 | 61 | 12.9 | 19.3 | 0.00 | 0.08 | 0.08 | 78 | 1012.7 |
| 20260510103553 | 18 | 59 | 11.3 | 19.3 | 0.00 | 0.08 | 0.08 | 79 | 1012.7 |
| 20260510103053 | 18 | 56 | 9.7 | 19.3 | 0.00 | 0.08 | 0.08 | 80 | 1012.8 |
| 20260510102553 | 17 | 49 | 8.0 | 14.5 | 0.00 | 0.08 | 0.08 | 79 | 1012.8 |
| 20260510102052 | 17 | 69 | 11.3 | 16.1 | 0.00 | 0.08 | 0.08 | 78 | 1012.8 |
| 20260510101600 | 17 | 65 | 14.5 | 22.5 | 0.00 | 0.08 | 0.08 | 78 | 1012.8 |
| 20260510101052 | 17 | 62 | 11.3 | 20.9 | 0.00 | 0.08 | 0.08 | 78 | 1012.9 |
| 20260510100552 | 17 | 65 | 11.3 | 19.3 | 0.00 | 0.08 | 0.08 | 76 | 1012.9 |
| 20260510100052 | 18 | 91 | 9.7 | 16.1 | 0.00 | 0.08 | 0.08 | 75 | 1013.0 |
| 20260510095553 | 18 | 69 | 8.0 | 22.5 | 0.00 | 0.08 | 0.08 | 77 | 1013.0 |
| 20260510094055 | 18 | 78 | 14.5 | 22.5 | 0.00 | 0.08 | 0.08 | 76 | 1013.0 |
| 20260510093552 | 18 | 79 | 14.5 | 20.9 | 0.00 | 0.08 | 0.08 | 77 | 1013.0 |
| 20260510093057 | 18 | 78 | 11.3 | 19.3 | 0.00 | 0.08 | 0.08 | 80 | 1013.0 |
| 20260510092552 | 18 | 76 | 8.0 | 19.3 | 0.00 | 0.08 | 0.08 | 81 | 1013.0 |
| 20260510092052 | 18 | 86 | 9.7 | 19.3 | 0.00 | 0.08 | 0.08 | 81 | 1013.0 |
| 20260510091552 | 18 | 74 | 11.3 | 19.3 | 0.00 | 0.08 | 0.08 | 82 | 1013.1 |
| 20260510091107 | 18 | 85 | 11.3 | 16.1 | 0.00 | 0.08 | 0.08 | 83 | 1013.2 |
| 20260510090552 | 18 | 92 | 8.0 | 16.1 | 0.00 | 0.08 | 0.08 | 83 | 1013.2 |
| 20260510090053 | 18 | 85 | 11.3 | 16.1 | 0.00 | 0.08 | 0.08 | 84 | 1013.2 |
| 20260510085052 | 17 | 72 | 9.7 | 12.9 | 0.00 | 0.08 | 0.08 | 86 | 1013.2 |
| 20260510084553 | 17 | 86 | 8.0 | 14.5 | 0.00 | 0.08 | 0.08 | 87 | 1013.2 |
| 20260510084052 | 17 | 70 | 8.0 | 12.9 | 0.00 | 0.08 | 0.08 | 87 | 1013.2 |
| 20260510083552 | 17 | 81 | 9.7 | 12.9 | 0.00 | 0.08 | 0.08 | 87 | 1013.2 |
| 20260510083052 | 17 | 70 | 9.7 | 16.1 | 0.00 | 0.08 | 0.08 | 87 | 1013.1 |
| 20260510082552 | 17 | 78 | 9.7 | 14.5 | 0.00 | 0.08 | 0.08 | 87 | 1013.1 |
| 20260510081552 | 17 | 80 | 8.0 | 12.9 | 0.00 | 0.08 | 0.08 | 88 | 1013.1 |
| 20260510081053 | 17 | 93 | 9.7 | 12.9 | 0.00 | 0.08 | 0.08 | 88 | 1013.1 |
| 20260510080055 | 17 | 67 | 4.8 | 9.7 | 0.00 | 0.08 | 0.08 | 89 | 1013.1 |
| 20260510075552 | 17 | 67 | 6.4 | 9.7 | 0.00 | 0.08 | 0.08 | 88 | 1013.0 |
| 20260510075052 | 17 | 82 | 6.4 | 9.7 | 0.00 | 0.08 | 0.08 | 89 | 1013.0 |
| 20260510074553 | 17 | 84 | 4.8 | 12.9 | 0.00 | 0.08 | 0.08 | 89 | 1013.0 |
| 20260510074055 | 17 | 101 | 6.4 | 11.3 | 0.03 | 0.08 | 0.08 | 90 | 1012.9 |
| 20260510073052 | 17 | 79 | 4.8 | 11.3 | 0.03 | 0.08 | 0.08 | 92 | 1012.8 |
| 20260510072552 | 16 | 78 | 8.0 | 11.3 | 0.08 | 0.08 | 0.08 | 92 | 1012.7 |
| 20260510072051 | 16 | 67 | 8.0 | 14.5 | 0.08 | 0.08 | 0.08 | 92 | 1012.6 |
| 20260510071107 | 16 | 77 | 16.1 | 20.9 | 0.08 | 0.08 | 0.08 | 93 | 1012.6 |
| 20260510065552 | 16 | 75 | 8.0 | 14.5 | 0.08 | 0.08 | 0.08 | 93 | 1012.5 |
| 20260510064552 | 16 | 73 | 14.5 | 20.9 | 0.08 | 0.08 | 0.08 | 92 | 1012.5 |
| 20260510064052 | 16 | 91 | 11.3 | 19.3 | 0.05 | 0.05 | 0.05 | 91 | 1012.5 |
| 20260510063552 | 16 | 77 | 16.1 | 20.9 | 0.05 | 0.05 | 0.05 | 90 | 1012.5 |
| 20260510063053 | 16 | 73 | 12.9 | 20.9 | 0.05 | 0.05 | 0.05 | 89 | 1012.5 |
| 20260510062552 | 17 | 80 | 11.3 | 22.5 | 0.03 | 0.03 | 0.03 | 87 | 1012.5 |
| 20260510062052 | 17 | 89 | 11.3 | 12.9 | 0.00 | 0.00 | 0.00 | 87 | 1012.5 |
| 20260510061552 | 17 | 83 | 9.7 | 20.9 | 0.00 | 0.00 | 0.00 | 87 | 1012.5 |
| 20260510061051 | 17 | 90 | 12.9 | 20.9 | 0.00 | 0.00 | 0.00 | 86 | 1012.7 |
| 20260510060052 | 16 | 91 | 9.7 | 14.5 | 0.00 | 0.00 | 0.00 | 85 | 1012.6 |
| 20260510055552 | 16 | 76 | 9.7 | 16.1 | 0.00 | 0.00 | 0.00 | 85 | 1012.6 |
| 20260510054552 | 16 | 85 | 4.8 | 9.7 | 0.00 | 0.00 | 0.00 | 88 | 1012.7 |
| 20260510054051 | 16 | 94 | 4.8 | 11.3 | 0.00 | 0.00 | 0.00 | 88 | 1012.7 |
| 20260510053553 | 16 | 122 | 4.8 | 8.0 | 0.00 | 0.00 | 0.00 | 88 | 1012.6 |
| 20260510053051 | 15 | 100 | 3.2 | 8.0 | 0.00 | 0.00 | 0.00 | 88 | 1012.6 |
| 20260510052551 | 15 | 108 | 3.2 | 8.0 | 0.00 | 0.00 | 0.00 | 88 | 1012.6 |
| 20260510052051 | 15 | 107 | 6.4 | 11.3 | 0.00 | 0.00 | 0.00 | 88 | 1012.6 |
| 20260510051552 | 15 | 111 | 4.8 | 11.3 | 0.00 | 0.00 | 0.00 | 88 | 1012.7 |
| 20260510051052 | 15 | 101 | 3.2 | 8.0 | 0.00 | 0.00 | 0.00 | 87 | 1012.7 |
| 20260510050553 | 16 | 104 | 4.8 | 8.0 | 0.00 | 0.00 | 0.00 | 86 | 1012.7 |
| 20260510050051 | 16 | 132 | 3.2 | 3.2 | 0.00 | 0.00 | 0.00 | 85 | 1012.7 |
| 20260510045551 | 16 | 177 | 3.2 | 4.8 | 0.00 | 0.00 | 0.00 | 85 | 1012.6 |
| 20260510044551 | 16 | 202 | 3.2 | 4.8 | 0.00 | 0.00 | 0.00 | 85 | 1012.6 |
| 20260510044051 | 15 | 56 | 1.6 | 3.2 | 0.00 | 0.00 | 0.00 | 85 | 1012.6 |
| 20260510043551 | 15 | 47 | 0.0 | 1.6 | 0.00 | 0.00 | 0.00 | 86 | 1012.6 |
| 20260510043051 | 15 | 47 | 0.0 | 0.0 | 0.00 | 0.00 | 0.00 | 86 | 1012.5 |
| 20260510042552 | 15 | 47 | 0.0 | 0.0 | 0.00 | 0.00 | 0.00 | 86 | 1012.5 |
| 20260510042051 | 15 | 47 | 0.0 | 0.0 | 0.00 | 0.00 | 0.00 | 86 | 1012.4 |
| 20260510041551 | 15 | 47 | 0.0 | 1.6 | 0.00 | 0.00 | 0.00 | 86 | 1012.4 |
| 20260510041051 | 15 | 50 | 1.6 | 3.2 | 0.00 | 0.00 | 0.00 | 86 | 1012.5 |
| 20260510040051 | 15 | 87 | 3.2 | 8.0 | 0.00 | 0.00 | 0.00 | 86 | 1012.4 |
| 20260510035552 | 15 | 101 | 4.8 | 8.0 | 0.00 | 0.00 | 0.00 | 86 | 1012.4 |
| 20260510035051 | 15 | 82 | 4.8 | 11.3 | 0.00 | 0.00 | 0.00 | 85 | 1012.2 |
| 20260510034551 | 15 | 63 | 4.8 | 8.0 | 0.00 | 0.00 | 0.00 | 85 | 1012.3 |
| 20260510034051 | 15 | 66 | 6.4 | 9.7 | 0.00 | 0.00 | 0.00 | 85 | 1012.3 |
| 20260510033051 | 15 | 58 | 4.8 | 8.0 | 0.00 | 0.00 | 0.00 | 85 | 1012.4 |
| 20260510032551 | 15 | 60 | 4.8 | 8.0 | 0.00 | 0.00 | 0.00 | 85 | 1012.4 |
| 20260510032051 | 15 | 75 | 4.8 | 11.3 | 0.00 | 0.00 | 0.00 | 85 | 1012.5 |
| 20260510031551 | 15 | 64 | 4.8 | 8.0 | 0.00 | 0.00 | 0.00 | 84 | 1012.5 |
| 20260510031051 | 15 | 69 | 4.8 | 9.7 | 0.00 | 0.00 | 0.00 | 84 | 1012.6 |
| 20260510030551 | 15 | 69 | 3.2 | 8.0 | 0.00 | 0.00 | 0.00 | 84 | 1012.6 |
| 20260510030051 | 15 | 57 | 4.8 | 4.8 | 0.00 | 0.00 | 0.00 | 84 | 1012.7 |
| 20260510025551 | 15 | 48 | 3.2 | 4.8 | 0.00 | 0.00 | 0.00 | 84 | 1012.8 |
| 20260510025051 | 15 | 54 | 3.2 | 4.8 | 0.00 | 0.00 | 0.00 | 84 | 1012.9 |
| 20260510024551 | 15 | 63 | 3.2 | 4.8 | 0.00 | 0.00 | 0.00 | 84 | 1012.9 |
| 20260510024051 | 15 | 47 | 3.2 | 4.8 | 0.00 | 0.00 | 0.00 | 83 | 1012.9 |
| 20260510023551 | 16 | 40 | 3.2 | 4.8 | 0.00 | 0.00 | 0.00 | 83 | 1013.0 |
| 20260510023052 | 16 | 43 | 4.8 | 4.8 | 0.00 | 0.00 | 0.00 | 83 | 1013.1 |
| 20260510022551 | 16 | 46 | 4.8 | 4.8 | 0.00 | 0.00 | 0.00 | 82 | 1013.1 |
| 20260510022051 | 16 | 47 | 3.2 | 4.8 | 0.00 | 0.00 | 0.00 | 82 | 1013.2 |
| 20260510021051 | 16 | 24 | 1.6 | 4.8 | 0.00 | 0.00 | 0.00 | 81 | 1013.2 |
| 20260510020551 | 16 | 52 | 3.2 | 4.8 | 0.00 | 0.00 | 0.00 | 81 | 1013.3 |
| 20260510015553 | 16 | 62 | 4.8 | 8.0 | 0.00 | 0.00 | 0.00 | 80 | 1013.5 |
| 20260510015051 | 16 | 60 | 4.8 | 4.8 | 0.00 | 0.00 | 0.00 | 80 | 1013.5 |
| 20260510014556 | 16 | 45 | 4.8 | 8.0 | 0.00 | 0.00 | 0.00 | 81 | 1013.6 |
| 20260510014051 | 16 | 47 | 3.2 | 8.0 | 0.00 | 0.00 | 0.00 | 80 | 1013.6 |
| 20260510013553 | 16 | 59 | 3.2 | 8.0 | 0.00 | 0.00 | 0.00 | 80 | 1013.7 |
| 20260510013052 | 16 | 70 | 3.2 | 4.8 | 0.00 | 0.00 | 0.00 | 80 | 1013.7 |
| 20260510012551 | 16 | 73 | 3.2 | 8.0 | 0.00 | 0.00 | 0.00 | 79 | 1013.8 |
| 20260510012051 | 16 | 65 | 4.8 | 8.0 | 0.00 | 0.00 | 0.00 | 78 | 1013.8 |
| 20260510011551 | 16 | 70 | 4.8 | 9.7 | 0.00 | 0.00 | 0.00 | 78 | 1013.8 |
| 20260510011051 | 16 | 66 | 3.2 | 8.0 | 0.00 | 0.00 | 0.00 | 77 | 1013.9 |
| 20260510010553 | 16 | 72 | 3.2 | 4.8 | 0.00 | 0.00 | 0.00 | 77 | 1013.9 |
| 20260510010051 | 16 | 80 | 4.8 | 9.7 | 0.00 | 0.00 | 0.00 | 76 | 1013.8 |
| 20260510005550 | 16 | 72 | 4.8 | 11.3 | 0.00 | 0.00 | 0.00 | 76 | 1013.8 |
| 20260510004551 | 16 | 68 | 8.0 | 12.9 | 0.00 | 0.00 | 0.00 | 75 | 1013.8 |
| 20260510004051 | 16 | 65 | 6.4 | 12.9 | 0.00 | 0.00 | 0.00 | 74 | 1013.8 |
| 20260510003554 | 16 | 68 | 6.4 | 11.3 | 0.00 | 0.00 | 0.00 | 74 | 1013.8 |
| 20260510003051 | 16 | 69 | 4.8 | 11.3 | 0.00 | 0.00 | 0.00 | 75 | 1013.8 |
| 20260510002552 | 16 | 65 | 4.8 | 8.0 | 0.00 | 0.00 | 0.00 | 75 | 1013.8 |
| 20260510002051 | 16 | 59 | 4.8 | 8.0 | 0.00 | 0.00 | 0.00 | 76 | 1013.8 |
| 20260510001051 | 16 | 69 | 4.8 | 8.0 | 0.00 | 0.00 | 0.00 | 77 | 1014.0 |
| 20260510000551 | 16 | 62 | 4.8 | 8.0 | 0.00 | 0.00 | 0.00 | 77 | 1014.0 |
| 20260509235551 | 16 | 67 | 4.8 | 8.0 | 0.00 | 0.00 | 0.00 | 78 | 1014.1 |
| 20260509235051 | 16 | 53 | 6.4 | 8.0 | 0.00 | 0.00 | 0.00 | 78 | 1014.1 |
| 20260509234050 | 16 | 53 | 4.8 | 9.7 | 0.00 | 0.00 | 0.00 | 78 | 1014.2 |
| 20260509233051 | 16 | 70 | 8.0 | 8.0 | 0.00 | 0.00 | 0.00 | 78 | 1014.3 |
| 20260509232558 | 16 | 58 | 4.8 | 8.0 | 0.00 | 0.00 | 0.00 | 79 | 1014.3 |
| 20260509232050 | 16 | 54 | 6.4 | 9.7 | 0.00 | 0.00 | 0.00 | 79 | 1014.3 |
| 20260509231550 | 16 | 47 | 8.0 | 11.3 | 0.00 | 0.00 | 0.00 | 79 | 1014.4 |
| 20260509230550 | 16 | 49 | 6.4 | 8.0 | 0.00 | 0.00 | 0.00 | 79 | 1014.4 |
| 20260509230105 | 16 | 52 | 3.2 | 4.8 | 0.00 | 0.00 | 0.00 | 79 | 1014.4 |
| 20260509225551 | 16 | 64 | 4.8 | 11.3 | 0.00 | 0.00 | 0.00 | 78 | 1014.3 |
| 20260509225051 | 17 | 48 | 8.0 | 11.3 | 0.00 | 0.00 | 0.00 | 78 | 1014.3 |
| 20260509224551 | 17 | 71 | 3.2 | 8.0 | 0.00 | 0.00 | 0.00 | 78 | 1014.3 |
| 20260509224050 | 17 | 51 | 9.7 | 12.9 | 0.00 | 0.00 | 0.00 | 78 | 1014.3 |
| 20260509223550 | 17 | 43 | 6.4 | 9.7 | 0.00 | 0.00 | 0.00 | 78 | 1014.3 |
| 20260509223050 | 17 | 79 | 3.2 | 4.8 | 0.00 | 0.00 | 0.00 | 77 | 1014.1 |
| 20260509222552 | 17 | 106 | 1.6 | 4.8 | 0.00 | 0.00 | 0.00 | 78 | 1014.1 |
| 20260509222050 | 17 | 85 | 1.6 | 3.2 | 0.00 | 0.00 | 0.00 | 77 | 1014.1 |
| 20260509221551 | 17 | 85 | 1.6 | 3.2 | 0.00 | 0.00 | 0.00 | 77 | 1014.1 |